Weather History for MZBZ - February, 2012

Change the Weather History Date:

Wednesday, February 22, 2012

  Actual Average Record
Temperature  
Mean Temperature 78 °F -  
Max Temperature 84 °F 84 °F - ()
Min Temperature 73 °F - - ()
Cooling Degree Days 14    
Growing Degree Days 28 (Base 50)    
Moisture  
Dew Point 72 °F    
Average Humidity 77    
Maximum Humidity 94    
Minimum Humidity 62    
Precipitation  
Precipitation 0.00 in 0.08 in - ()
Sea Level Pressure  
Sea Level Pressure 29.98 in    
Wind  
Wind Speed 6 mph ()    
Max Wind Speed 14 mph    
Max Gust Speed -    
Visibility 8.1 miles    
Events Rain    
T = Trace of Precipitation, MM = Missing Value Source: Averaged Metar Reports

Daily Weather History Graph

Daily Weather History Graph

Search for Another Location

Airport or City:

Trip Planner

Search our weather history database for the weather conditions in past years. The results will help you decide how hot, cold, wet, or windy it might be!

Date:

Astronomy

Feb. 22, 2012 Rise Set
Actual Time 6:16 AM CST 5:57 PM CST
Civil Twilight 5:54 AM CST 6:19 PM CST
Nautical Twilight 5:29 AM CST 6:44 PM CST
Astronomical Twilight 5:03 AM CST 7:10 PM CST
Moon 6:28 AM CST (2/22) 6:44 PM CST (2/22)
Length of Visible Light 12h 24m
Length of Day
11h 40m
New Moon, 1% of the Moon is Illuminated
Feb 22
New Moon
Feb 29
First Quarter
Mar 8
Full
Mar 14
Last Quarter
Mar 22
New

Hourly Weather History & Observations

Time (CST) Temp. Heat Index Dew Point Humidity Pressure Visibility Wind Dir Wind Speed Gust Speed Precip Events Conditions
12:00 AM 76 °F - 72 °F 85% 30.05 in 12 mi East 4.6 mph - -  
12:00 AM 77.0 °F - 71.6 °F 83% 30.04 in 6.2 mi East 4.6 mph - N/A   Partly Cloudy
3:00 AM 74 °F - 72 °F 91% 29.99 in 12 mi Calm Calm - -   Scattered Clouds
3:00 AM 75.2 °F - 71.6 °F 89% 29.98 in 6.2 mi Calm Calm - N/A   Partly Cloudy
6:00 AM 74 °F - 72 °F 91% 30.01 in 12 mi Calm Calm - -  
6:00 AM 73.4 °F - 71.6 °F 94% 30.01 in 6.2 mi Calm Calm - N/A   Mostly Cloudy
7:00 AM 75.2 °F - 71.6 °F 89% 30.01 in 6.2 mi East 3.5 mph - N/A   Partly Cloudy
8:00 AM 80.6 °F 85.4 °F 73.4 °F 79% 30.01 in 6.2 mi East 6.9 mph - N/A   Mostly Cloudy
9:00 AM 82 °F - 73 °F 67% 30.04 in 12 mi East 9.2 mph - -   Partly Cloudy
9:00 AM 82.4 °F 88.2 °F 73.4 °F 74% 30.03 in 6.2 mi East 9.2 mph - N/A   Scattered Clouds
10:00 AM 82.4 °F 88.2 °F 73.4 °F 74% 30.04 in 6.2 mi East 12.7 mph - N/A   Scattered Clouds
11:00 AM 84.2 °F 90.9 °F 73.4 °F 70% 30.02 in 6.2 mi East 11.5 mph - N/A   Scattered Clouds
12:00 PM 83 °F - 73 °F 64% 30.01 in 12 mi East 13.8 mph - -  
12:00 PM 82.4 °F 88.2 °F 73.4 °F 74% 30.00 in 6.2 mi East 13.8 mph - N/A   Scattered Clouds
1:00 PM 82.4 °F 87.2 °F 71.6 °F 70% 29.98 in 6.2 mi East 12.7 mph - N/A   Scattered Clouds
2:00 PM 82.4 °F 88.2 °F 73.4 °F 74% 29.95 in 6.2 mi East 11.5 mph - N/A Rain Light Rain Showers
3:00 PM 83 °F - 72 °F 62% 29.94 in 12 mi East 10.4 mph - - Rain Light Rain Showers
3:00 PM 82.4 °F 87.2 °F 71.6 °F 70% 29.93 in 6.2 mi East 10.4 mph - N/A   Scattered Clouds
4:00 PM 82.4 °F 87.2 °F 71.6 °F 70% 29.92 in 6.2 mi East 10.4 mph - N/A   Partly Cloudy
5:00 PM 82.4 °F 87.2 °F 71.6 °F 70% 29.92 in 6.2 mi East 10.4 mph - N/A   Partly Cloudy
6:00 PM 80 °F - 71 °F 69% 29.92 in 12 mi East 8.1 mph - -  
6:00 PM 78.8 °F - 71.6 °F 78% 29.91 in 6.2 mi East 8.1 mph - N/A   Scattered Clouds
9:00 PM 76 °F - 71 °F 81% 29.96 in 12 mi ESE 4.6 mph - -   Scattered Clouds
9:00 PM 75.2 °F - 71.6 °F 89% 29.95 in 6.2 mi ESE 4.6 mph - N/A   Partly Cloudy